Regional Weather Roundup
Issued by NWS Albany, NY

Home | Current Version | Previous Version | Text Only | Print | Product List | Glossary On
Versions: 1 2 3 4 5 6 7 8 9 10 11 12 13 14 15 16 17 18 19 20 21 22 23 24 25 26 27
000
ASUS41 KALY 032010
RWRALY

NEW YORK STATE HOURLY WEATHER ROUNDUP
NATIONAL WEATHER SERVICE ALBANY NY
400 PM EDT TUE MAY 03 2016

NOTE: "FAIR" INDICATES FEW OR NO CLOUDS BELOW 12,000 FEET WITH NO
SIGNIFICANT WEATHER AND/OR NO OBSTRUCTIONS TO VISIBILITY.

NYZ032-033-038>043-046>054-057>066-NYZ062>081-082-084-032100-
EAST


CITY           SKY/WX    TMP DP  RH WIND       PRES   REMARKS
ALBANY         CLOUDY    54  41  61 NE8       29.83F
GLENS FALLS    MOSUNNY   55  39  54 CALM      29.84F
POUGHKEEPSIE   CLOUDY    54  49  83 NW6       29.81F
NEWBURGH       LGT RAIN  52  50  93 NE6       29.83F FOG
MONTGOMERY     CLOUDY    53  48  83 N7        29.81F
WHITE PLAINS   DRIZZLE   50  49  96 SE3       29.81F FOG
ISLIP          CLOUDY    52  48  86 NE9       29.80F
NEW YORK CITY  CLOUDY    54  51  90 NE12      29.81F FOG
CENTRAL PARK   CLOUDY    53  49  86 NE7       29.84S
$$

NYZ005>009-017-018-044>046-055-056-032100-
CENTRAL


CITY           SKY/WX    TMP DP  RH WIND       PRES   REMARKS
FULTON         CLOUDY    58  43  57 NW9       29.82F
SYRACUSE       PTSUNNY   57  41  55 NW3       29.81F
ROME           PTSUNNY   59  43  55 CALM      29.82F
ELMIRA         CLOUDY    53  41  63 CALM      29.81F
BINGHAMTON     CLOUDY    46  45  96 CALM      29.81F FOG
MONTICELLO     CLOUDY    46  46 100 E3        29.82F
$$

NYZ026>034-041>043-087-032100-
NORTH


CITY           SKY/WX    TMP DP  RH WIND       PRES   REMARKS
WATERTOWN      MOSUNNY   60  41  49 NW7       29.80F
FORT DRUM      NOT AVBL
MASSENA        SUNNY     57  35  43 E14       29.86F
SARANAC LAKE   SUNNY     52  34  50 VRB6      29.80F
PLATTSBURGH    NOT AVBL
$$

NYZ001>004-010>016-019>021-085-032100-
WEST


CITY           SKY/WX    TMP DP  RH WIND       PRES   REMARKS
NIAGARA FALLS  PTSUNNY   61  41  47 E3        29.81F
BUFFALO        PTSUNNY   57  39  51 SE5       29.81F
DUNKIRK        CLOUDY    54  40  59 W6        29.83F
JAMESTOWN      CLOUDY    48  41  76 NW7       29.82S
WELLSVILLE     CLOUDY    49  42  77 SE5       29.82F
ROCHESTER      PTSUNNY   56  40  55 CALM      29.82F
PENN YAN       CLOUDY    55  39  54 VRB5      29.82F
$$

             KEY
       WCI = WIND CHILL INDEX
       VSB = VISIBILITY
       HX  = HEAT INDEX
$$




USA.gov is the U.S. government's official web portal to all federal, state and local government web resources and services.